THY2UC LTAC-LTDA

Flight info

Callsign THY2UC
Flight time 0h 48m
Altitude 35000
Route GOBIT1T/03L GOBIT UG8 MARTI UL614 GEM DCT MILBA
Aircraft A333/H-SDE3GHIJ2J3J5M1RVWXY/LB2D1

Departure

Time 2026-05-04 17:07
Airport Esenboğa International Airport (LTAC)

Arrival

Time 2026-05-04 17:56
Airport Hatay Airport (LTDA)
Time Latitude Longitude Altitude Speed Heading
2026-05-04 16:41 40.12250 33.00237 3141 ft 0 kts 258°
2026-05-04 16:55 40.12255 33.00269 3141 ft 2 kts 267°
2026-05-04 16:56 40.12240 33.00298 3142 ft 0 kts 350°
2026-05-04 16:59 40.12276 33.00290 3142 ft 6 kts 350°
2026-05-04 17:00 40.12528 33.00231 3136 ft 14 kts 350°
2026-05-04 17:00 40.12593 32.99945 3134 ft 10 kts 271°
2026-05-04 17:01 40.12572 32.99735 3132 ft 13 kts 228°
2026-05-04 17:01 40.12408 32.99577 3129 ft 20 kts 216°
2026-05-04 17:02 40.12171 32.99352 3124 ft 21 kts 216°
2026-05-04 17:02 40.11954 32.99145 3127 ft 18 kts 215°
2026-05-04 17:03 40.11855 32.99052 3132 ft 17 kts 216°
2026-05-04 17:03 40.11763 32.98963 3129 ft 17 kts 216°
2026-05-04 17:03 40.11514 32.98725 3122 ft 24 kts 216°
2026-05-04 17:04 40.11344 32.98480 3124 ft 11 kts 263°
2026-05-04 17:04 40.11351 32.98447 3127 ft 0 kts 300°
2026-05-04 17:05 40.11378 32.98395 3125 ft 11 kts 305°
2026-05-04 17:05 40.11523 32.98158 3129 ft 12 kts 336°
2026-05-04 17:06 40.11623 32.98217 3130 ft 23 kts 36°
2026-05-04 17:06 40.11912 32.98491 3135 ft 79 kts 35°
2026-05-04 17:07 40.13340 32.99855 3133 ft 172 kts 35°
2026-05-04 17:07 40.13993 33.00481 3474 ft 174 kts 33°
2026-05-04 17:07 40.15219 33.01807 4537 ft 173 kts 37°
2026-05-04 17:07 40.16184 33.02879 4881 ft 198 kts 37°
2026-05-04 17:08 40.17324 33.04082 5163 ft 222 kts 36°
2026-05-04 17:08 40.19806 33.06862 6239 ft 243 kts 48°
2026-05-04 17:08 40.20558 33.08853 6899 ft 250 kts 76°
2026-05-04 17:09 40.20479 33.11155 7443 ft 264 kts 105°
2026-05-04 17:09 40.19549 33.13303 7882 ft 280 kts 126°
2026-05-04 17:09 40.18365 33.15320 8637 ft 284 kts 126°
2026-05-04 17:10 40.16084 33.19498 10358 ft 285 kts 125°
2026-05-04 17:10 40.12297 33.26417 11342 ft 338 kts 125°
2026-05-04 17:11 40.10910 33.28933 11954 ft 344 kts 125°
2026-05-04 17:11 40.09498 33.31491 12646 ft 348 kts 125°
2026-05-04 17:11 40.06656 33.36631 14110 ft 352 kts 126°
2026-05-04 17:12 40.05214 33.39236 14712 ft 356 kts 126°
2026-05-04 17:12 40.02272 33.44542 15847 ft 367 kts 126°
2026-05-04 17:13 39.97754 33.52674 17787 ft 374 kts 126°
2026-05-04 17:14 39.93088 33.61051 19333 ft 385 kts 126°
2026-05-04 17:14 39.91508 33.63882 19866 ft 387 kts 126°
2026-05-04 17:14 39.88308 33.69609 20822 ft 395 kts 126°
2026-05-04 17:15 39.86684 33.72512 21274 ft 399 kts 126°
2026-05-04 17:15 39.83399 33.78376 22295 ft 403 kts 126°
2026-05-04 17:16 39.80130 33.84201 23595 ft 398 kts 127°
2026-05-04 17:16 39.36046 35.32524 37734 ft 405 kts 110°
2026-05-04 17:17 39.35515 35.34371 37661 ft 409 kts 112°
2026-05-04 17:17 39.33116 35.42547 36836 ft 440 kts 112°
2026-05-04 17:18 39.32127 35.45946 36825 ft 445 kts 112°
2026-05-04 17:18 39.29924 35.53524 36830 ft 456 kts 112°
2026-05-04 17:19 39.27662 35.61270 36846 ft 466 kts 112°
2026-05-04 17:19 39.25339 35.69185 36850 ft 477 kts 112°
2026-05-04 17:20 39.22970 35.77229 36842 ft 480 kts 112°
2026-05-04 17:20 39.19409 35.89284 36845 ft 479 kts 112°
2026-05-04 17:21 39.16737 35.97122 36855 ft 475 kts 126°
2026-05-04 17:21 39.11984 36.02776 36836 ft 465 kts 155°
2026-05-04 17:22 39.09001 36.04156 36855 ft 462 kts 169°
2026-05-04 17:22 39.05887 36.04926 36849 ft 462 kts 172°
2026-05-04 17:23 38.93102 36.07549 36841 ft 464 kts 172°
2026-05-04 17:24 38.83524 36.09546 36857 ft 465 kts 172°
2026-05-04 17:25 38.70752 36.12211 36853 ft 465 kts 172°
2026-05-04 17:26 38.57973 36.14870 36859 ft 465 kts 172°
2026-05-04 17:27 38.41999 36.18181 36867 ft 466 kts 173°
2026-05-04 17:28 38.29205 36.20822 36536 ft 465 kts 173°
2026-05-04 17:29 38.19661 36.22784 35819 ft 466 kts 173°
2026-05-04 17:29 38.10015 36.24764 35108 ft 466 kts 174°
2026-05-04 17:30 38.00420 36.26727 34423 ft 465 kts 174°
2026-05-04 17:31 37.94031 36.28032 33976 ft 465 kts 174°
2026-05-04 17:31 37.84484 36.29977 33171 ft 465 kts 175°
2026-05-04 17:32 37.78089 36.31277 32669 ft 465 kts 175°
2026-05-04 17:33 37.68498 36.33222 31888 ft 466 kts 175°
2026-05-04 17:33 37.66333 36.33661 31708 ft 466 kts 175°
2026-05-04 17:34 37.55651 36.35822 30438 ft 465 kts 175°
2026-05-04 17:34 37.52502 36.36459 29895 ft 463 kts 175°
2026-05-04 17:35 37.43106 36.38355 28282 ft 449 kts 176°
2026-05-04 17:35 37.36997 36.39585 27236 ft 440 kts 176°
2026-05-04 17:35 37.33992 36.40188 26730 ft 436 kts 176°
2026-05-04 17:36 37.31005 36.40788 26216 ft 433 kts 176°
2026-05-04 17:36 37.28046 36.41381 25692 ft 429 kts 176°
2026-05-04 17:36 37.25111 36.41969 25196 ft 425 kts 176°
2026-05-04 17:36 37.22198 36.42551 24682 ft 423 kts 176°
2026-05-04 17:37 37.19303 36.43130 24182 ft 420 kts 176°
2026-05-04 17:37 37.17392 36.43511 23842 ft 419 kts 176°
2026-05-04 17:37 37.14526 36.44082 23312 ft 416 kts 176°
2026-05-04 17:37 37.11674 36.44652 22749 ft 413 kts 175°
2026-05-04 17:38 37.08856 36.45215 22238 ft 408 kts 175°
2026-05-04 17:38 37.06071 36.45771 21767 ft 403 kts 175°
2026-05-04 17:38 37.03316 36.46320 21269 ft 399 kts 175°
2026-05-04 17:38 37.00593 36.46863 20782 ft 395 kts 175°
2026-05-04 17:39 36.95217 36.47649 19857 ft 381 kts 186°
2026-05-04 17:39 36.92631 36.47160 19400 ft 372 kts 195°
2026-05-04 17:39 36.90134 36.46386 18986 ft 367 kts 198°
2026-05-04 17:40 36.87678 36.45576 18569 ft 364 kts 198°
2026-05-04 17:40 36.85236 36.44768 18164 ft 362 kts 198°
2026-05-04 17:40 36.82810 36.43973 17689 ft 359 kts 198°
2026-05-04 17:40 36.80402 36.43186 17282 ft 356 kts 198°
2026-05-04 17:41 36.78019 36.42413 16869 ft 352 kts 198°
2026-05-04 17:41 36.75659 36.41651 16469 ft 348 kts 198°
2026-05-04 17:41 36.73323 36.40898 16061 ft 346 kts 198°
2026-05-04 17:41 36.71000 36.40150 15662 ft 344 kts 198°
2026-05-04 17:42 36.68697 36.39409 15249 ft 339 kts 198°
2026-05-04 17:42 36.66425 36.38678 14870 ft 336 kts 198°
2026-05-04 17:42 36.64167 36.37949 14456 ft 334 kts 198°
2026-05-04 17:42 36.61928 36.37232 14054 ft 330 kts 198°
2026-05-04 17:43 36.59748 36.36543 13691 ft 326 kts 198°
2026-05-04 17:43 36.57560 36.35839 13258 ft 323 kts 198°
2026-05-04 17:43 36.55394 36.35141 12872 ft 319 kts 198°
2026-05-04 17:43 36.53254 36.34441 12507 ft 318 kts 198°
2026-05-04 17:44 36.51113 36.33751 12132 ft 318 kts 198°
2026-05-04 17:44 36.48977 36.33069 11761 ft 317 kts 198°
2026-05-04 17:44 36.46846 36.32389 11406 ft 315 kts 198°
2026-05-04 17:44 36.44760 36.31726 11297 ft 302 kts 198°
2026-05-04 17:45 36.42768 36.31094 11186 ft 290 kts 198°
2026-05-04 17:45 36.40846 36.30505 11060 ft 280 kts 195°
2026-05-04 17:45 36.38924 36.30319 10944 ft 277 kts 180°
2026-05-04 17:45 36.37059 36.30890 10810 ft 278 kts 160°
2026-05-04 17:46 36.35466 36.32222 10695 ft 279 kts 139°
2026-05-04 17:46 36.34313 36.34187 10453 ft 286 kts 118°
2026-05-04 17:46 36.33708 36.36556 10138 ft 292 kts 103°
2026-05-04 17:46 36.33576 36.39106 9575 ft 302 kts 83°
2026-05-04 17:47 36.34113 36.41650 8956 ft 309 kts 69°
2026-05-04 17:47 36.34911 36.44150 8382 ft 315 kts 67°
2026-05-04 17:47 36.35756 36.46677 7798 ft 320 kts 66°
2026-05-04 17:47 36.36616 36.49238 7207 ft 324 kts 66°
2026-05-04 17:48 36.37687 36.51693 6634 ft 324 kts 51°
2026-05-04 17:48 36.39184 36.53695 6386 ft 306 kts 41°
2026-05-04 17:48 36.40737 36.55385 6301 ft 292 kts 32°
2026-05-04 17:48 36.42483 36.56521 6054 ft 276 kts 13°
2026-05-04 17:49 36.44337 36.56810 5779 ft 265 kts 350°
2026-05-04 17:49 36.46053 36.56123 5424 ft 258 kts 324°
2026-05-04 17:49 36.47504 36.54787 5134 ft 264 kts 317°
2026-05-04 17:49 36.48904 36.53308 4998 ft 264 kts 316°
2026-05-04 17:50 36.50293 36.51806 4888 ft 263 kts 315°
2026-05-04 17:50 36.51548 36.50234 4779 ft 249 kts 303°
2026-05-04 17:50 36.52192 36.48370 4614 ft 225 kts 278°
2026-05-04 17:50 36.52174 36.46526 4390 ft 205 kts 254°
2026-05-04 17:51 36.51515 36.45045 4180 ft 192 kts 231°
2026-05-04 17:51 36.50574 36.43899 3841 ft 189 kts 223°
2026-05-04 17:51 36.49529 36.42920 3688 ft 188 kts 213°
2026-05-04 17:51 36.48383 36.42216 3662 ft 180 kts 208°
2026-05-04 17:52 36.47250 36.41554 3402 ft 178 kts 214°
2026-05-04 17:52 36.46255 36.40645 2938 ft 181 kts 226°
2026-05-04 17:52 36.45384 36.39510 2531 ft 181 kts 231°
2026-05-04 17:52 36.44590 36.38317 2225 ft 174 kts 230°
2026-05-04 17:53 36.43764 36.37310 2001 ft 160 kts 223°
2026-05-04 17:53 36.42971 36.36401 1723 ft 151 kts 223°
2026-05-04 17:53 36.42232 36.35557 1481 ft 138 kts 216°
2026-05-04 17:53 36.41520 36.34780 1287 ft 137 kts 217°
2026-05-04 17:54 36.40807 36.34007 1119 ft 135 kts 221°
2026-05-04 17:54 36.40133 36.33206 960 ft 133 kts 218°
2026-05-04 17:54 36.39460 36.32428 809 ft 132 kts 220°
2026-05-04 17:54 36.38772 36.31662 679 ft 134 kts 221°
2026-05-04 17:55 36.38097 36.30868 515 ft 134 kts 221°
2026-05-04 17:55 36.37418 36.30092 360 ft 132 kts 222°
2026-05-04 17:55 36.36754 36.29340 274 ft 116 kts 223°
2026-05-04 17:55 36.36308 36.28834 275 ft 58 kts 222°
2026-05-04 17:56 36.36125 36.28615 274 ft 27 kts 222°
2026-05-04 17:56 36.36068 36.28515 273 ft 3 kts 289°